TimeIST,TemperatureF,Dew PointF,Humidity,Sea Level PressureIn,VisibilityMPH,Wind Direction,Wind SpeedMPH,Gust SpeedMPH,PrecipitationIn,Events,Conditions,WindDirDegrees,DateUTC
12:10 AM,86.0,75.2,70,29.77,3.7,SE,5.8,-,N/A,,Partly Cloudy,130,2013-04-20 18:40:00
12:40 AM,86.0,75.2,70,29.77,3.7,South,5.8,-,N/A,,Partly Cloudy,190,2013-04-20 19:10:00
1:10 AM,86.0,75.2,70,29.77,3.7,SSE,3.5,-,N/A,,Partly Cloudy,160,2013-04-20 19:40:00
1:40 AM,86.0,75.2,70,29.77,3.7,South,5.8,-,N/A,,Partly Cloudy,180,2013-04-20 20:10:00
2:10 AM,86.0,75.2,70,29.74,3.7,SSE,6.9,-,N/A,,Partly Cloudy,150,2013-04-20 20:40:00
2:30 AM,86,73,57,29.75,2,NNE,5.8,,,,Haze,20,2013-04-20 21:00:00
2:40 AM,86.0,75.2,70,29.74,3.7,SSE,6.9,-,N/A,,Partly Cloudy,150,2013-04-20 21:10:00
3:10 AM,84.2,73.4,70,29.74,3.7,SE,5.8,-,N/A,,Partly Cloudy,130,2013-04-20 21:40:00
3:40 AM,84.2,73.4,70,29.74,3.7,South,4.6,-,N/A,,Partly Cloudy,190,2013-04-20 22:10:00
4:10 AM,84.2,75.2,74,29.74,3.7,SSE,2.3,-,N/A,,Partly Cloudy,160,2013-04-20 22:40:00
4:40 AM,84.2,75.2,74,29.74,3.7,SSW,5.8,-,N/A,,Partly Cloudy,200,2013-04-20 23:10:00
5:30 AM,82,76,79,29.74,2,NE,3.5,,,,Haze,50,2013-04-21 00:00:00
5:40 AM,82.4,75.2,79,29.74,3.1,SSW,5.8,-,N/A,,Haze,200,2013-04-21 00:10:00
6:10 AM,82.4,77.0,84,29.74,2.5,South,5.8,-,N/A,,Haze,170,2013-04-21 00:40:00
7:10 AM,86.0,75.2,70,29.77,1.9,South,6.9,-,N/A,,Haze,170,2013-04-21 01:40:00
7:40 AM,89.6,75.2,62,29.80,2.5,South,6.9,-,N/A,,Haze,170,2013-04-21 02:10:00
8:10 AM,89.6,75.2,62,29.83,2.5,South,6.9,-,N/A,,Haze,170,2013-04-21 02:40:00
8:30 AM,90,72,46,29.82,2,SSE,4.6,,,,Haze,160,2013-04-21 03:00:00
8:40 AM,89.6,73.4,59,29.83,2.5,SSE,6.9,-,N/A,,Haze,160,2013-04-21 03:10:00
9:40 AM,93.2,71.6,49,29.83,3.7,South,4.6,-,N/A,,Scattered Clouds,170,2013-04-21 04:10:00
10:10 AM,95.0,71.6,47,29.83,5.0,SSE,6.9,-,N/A,,Scattered Clouds,160,2013-04-21 04:40:00
10:40 AM,96.8,69.8,41,29.80,5.0,SSE,6.9,-,N/A,,Scattered Clouds,160,2013-04-21 05:10:00
11:10 AM,96.8,69.8,41,29.80,5.0,South,8.1,-,N/A,,Scattered Clouds,180,2013-04-21 05:40:00
11:30 AM,98,70,30,29.78,2,South,6.9,,,,Haze,180,2013-04-21 06:00:00
11:40 AM,98.6,71.6,42,29.80,5.0,South,6.9,-,N/A,,Scattered Clouds,180,2013-04-21 06:10:00
12:10 PM,100.4,71.6,39,29.77,5.0,SE,8.1,-,N/A,,Scattered Clouds,140,2013-04-21 06:40:00
12:40 PM,100.4,71.6,39,29.74,5.0,South,5.8,-,N/A,,Scattered Clouds,170,2013-04-21 07:10:00
1:10 PM,102.2,71.6,37,29.74,6.2,SSE,8.1,-,N/A,,Scattered Clouds,150,2013-04-21 07:40:00
1:40 PM,104.0,69.8,33,29.71,6.2,SSE,5.8,-,N/A,,Scattered Clouds,160,2013-04-21 08:10:00
2:10 PM,104.0,69.8,33,29.68,6.2,SSE,9.2,-,N/A,,Scattered Clouds,150,2013-04-21 08:40:00
2:30 PM,103,65,21,29.67,6,South,10.4,,,,Mostly Cloudy,180,2013-04-21 09:00:00
2:40 PM,104.0,68.0,31,29.68,6.2,SSE,10.4,-,N/A,,Scattered Clouds,160,2013-04-21 09:10:00
3:10 PM,104.0,68.0,31,29.65,6.2,SSE,10.4,-,N/A,,Scattered Clouds,150,2013-04-21 09:40:00
3:40 PM,102.2,69.8,35,29.65,6.2,South,10.4,-,N/A,,Scattered Clouds,170,2013-04-21 10:10:00
4:10 PM,102.2,69.8,35,29.65,6.2,SSE,9.2,-,N/A,,Scattered Clouds,160,2013-04-21 10:40:00
4:40 PM,100.4,71.6,39,29.65,6.2,South,9.2,-,N/A,,Scattered Clouds,180,2013-04-21 11:10:00
5:10 PM,98.6,69.8,39,29.65,6.2,SSE,11.5,-,N/A,,Partly Cloudy,160,2013-04-21 11:40:00
5:30 PM,98,69,29,29.64,6,South,12.7,,,,Partly Cloudy,180,2013-04-21 12:00:00
5:40 PM,96.8,69.8,41,29.65,6.2,SSE,10.4,-,N/A,,Partly Cloudy,160,2013-04-21 12:10:00
6:10 PM,95.0,69.8,44,29.65,5.0,SSE,13.8,-,N/A,,Partly Cloudy,160,2013-04-21 12:40:00
6:40 PM,93.2,71.6,49,29.68,3.7,SSE,12.7,-,N/A,,Partly Cloudy,160,2013-04-21 13:10:00
7:10 PM,91.4,71.6,52,29.71,3.7,SSE,11.5,-,N/A,,Partly Cloudy,160,2013-04-21 13:40:00
7:40 PM,91.4,71.6,52,29.71,3.7,SSE,12.7,-,N/A,,Partly Cloudy,160,2013-04-21 14:10:00
8:10 PM,89.6,71.6,55,29.74,3.7,SSE,6.9,-,N/A,,Partly Cloudy,160,2013-04-21 14:40:00
8:30 PM,90,71,44,29.74,2,South,6.9,,,,Haze,180,2013-04-21 15:00:00
8:40 PM,89.6,71.6,55,29.74,3.7,South,6.9,-,N/A,,Partly Cloudy,170,2013-04-21 15:10:00
9:10 PM,89.6,73.4,59,29.77,3.7,South,6.9,-,N/A,,Partly Cloudy,170,2013-04-21 15:40:00
9:40 PM,87.8,73.4,62,29.77,3.7,SSE,5.8,-,N/A,,Partly Cloudy,160,2013-04-21 16:10:00
10:10 PM,87.8,71.6,58,29.77,3.7,SSE,5.8,-,N/A,,Scattered Clouds,150,2013-04-21 16:40:00
10:40 PM,87.8,71.6,58,29.80,3.7,SE,5.8,-,N/A,,Scattered Clouds,140,2013-04-21 17:10:00
11:10 PM,86.0,71.6,62,29.80,3.7,SSE,4.6,-,N/A,,Partly Cloudy,160,2013-04-21 17:40:00
11:30 PM,86,72,54,29.78,2,SSE,4.6,,,,Haze,160,2013-04-21 18:00:00
11:40 PM,86.0,73.4,66,29.77,3.7,SSE,4.6,-,N/A,,Partly Cloudy,150,2013-04-21 18:10:00